AIJ2201 MMGL-MMMX

Flight info

Callsign AIJ2201
Flight time 0h 51m
Altitude 33000
Route EMIRI1B EMIRI UT119 ESPOS ESPOS3A
Aircraft A320/M-SDE3FGHIRWY/LB1

Departure

Time 2026-05-06 02:59
Airport Guadalajara International Airport (MMGL)

Arrival

Time 2026-05-06 03:51
Airport Mexico City Benito Juárez International Airport (MMMX)
Time Latitude Longitude Altitude Speed Heading
2026-05-06 02:35 20.52361 -103.29865 5029 ft 0 kts 19°
2026-05-06 02:49 20.52350 -103.29869 5029 ft 0 kts 19°
2026-05-06 02:49 20.52337 -103.29874 5029 ft 2 kts 21°
2026-05-06 02:50 20.52324 -103.29884 5029 ft 2 kts 49°
2026-05-06 02:50 20.52316 -103.29896 5029 ft 2 kts 71°
2026-05-06 02:50 20.52314 -103.29913 5029 ft 2 kts 93°
2026-05-06 02:50 20.52317 -103.29928 5029 ft 2 kts 114°
2026-05-06 02:51 20.52322 -103.29943 5029 ft 2 kts 107°
2026-05-06 02:51 20.52325 -103.29951 5029 ft 0 kts 109°
2026-05-06 02:54 20.52324 -103.29948 5029 ft 1 kts 109°
2026-05-06 02:54 20.52315 -103.29923 5029 ft 5 kts 111°
2026-05-06 02:55 20.52294 -103.29877 5029 ft 8 kts 117°
2026-05-06 02:55 20.52266 -103.29820 5029 ft 9 kts 117°
2026-05-06 02:55 20.52233 -103.29760 5029 ft 8 kts 151°
2026-05-06 02:55 20.52167 -103.29775 5029 ft 10 kts 199°
2026-05-06 02:56 20.52099 -103.29799 5029 ft 10 kts 191°
2026-05-06 02:56 20.52048 -103.29753 5030 ft 10 kts 114°
2026-05-06 02:56 20.52017 -103.29678 5030 ft 11 kts 114°
2026-05-06 02:56 20.51982 -103.29595 5029 ft 12 kts 114°
2026-05-06 02:57 20.51954 -103.29538 5029 ft 3 kts 137°
2026-05-06 02:57 20.51935 -103.29521 5029 ft 3 kts 150°
2026-05-06 02:57 20.51919 -103.29530 5029 ft 3 kts 218°
2026-05-06 02:57 20.51897 -103.29547 5029 ft 4 kts 213°
2026-05-06 02:58 20.51867 -103.29563 5030 ft 5 kts 205°
2026-05-06 02:58 20.51835 -103.29579 5030 ft 5 kts 205°
2026-05-06 02:58 20.51815 -103.29601 5030 ft 4 kts 291°
2026-05-06 02:58 20.51834 -103.29648 5030 ft 16 kts 294°
2026-05-06 02:59 20.51984 -103.30008 5030 ft 86 kts 295°
2026-05-06 02:59 20.52310 -103.30788 5033 ft 144 kts 294°
2026-05-06 02:59 20.52784 -103.31920 5178 ft 179 kts 293°
2026-05-06 02:59 20.53287 -103.33117 5832 ft 176 kts 293°
2026-05-06 03:00 20.53775 -103.34292 6408 ft 172 kts 292°
2026-05-06 03:00 20.54236 -103.35476 6744 ft 175 kts 291°
2026-05-06 03:00 20.54715 -103.36715 6967 ft 187 kts 291°
2026-05-06 03:00 20.55231 -103.38026 7200 ft 199 kts 292°
2026-05-06 03:01 20.55789 -103.39426 7439 ft 212 kts 292°
2026-05-06 03:01 20.56389 -103.40920 7679 ft 226 kts 292°
2026-05-06 03:01 20.56965 -103.42584 7837 ft 246 kts 278°
2026-05-06 03:01 20.56737 -103.44415 8093 ft 260 kts 242°
2026-05-06 03:02 20.55490 -103.45830 8356 ft 277 kts 209°
2026-05-06 03:02 20.53584 -103.46298 8721 ft 290 kts 176°
2026-05-06 03:02 20.51686 -103.45566 9286 ft 296 kts 143°
2026-05-06 03:02 20.50284 -103.43964 9949 ft 298 kts 127°
2026-05-06 03:03 20.49080 -103.42135 10611 ft 300 kts 126°
2026-05-06 03:03 20.47869 -103.40334 11291 ft 300 kts 128°
2026-05-06 03:03 20.46613 -103.38571 11981 ft 300 kts 129°
2026-05-06 03:03 20.45318 -103.36837 12651 ft 301 kts 130°
2026-05-06 03:04 20.43998 -103.35119 13319 ft 301 kts 130°
2026-05-06 03:04 20.42661 -103.33408 13957 ft 303 kts 131°
2026-05-06 03:04 20.41306 -103.31692 14547 ft 305 kts 131°
2026-05-06 03:04 20.39922 -103.29952 15001 ft 313 kts 131°
2026-05-06 03:05 20.38458 -103.28124 15250 ft 328 kts 131°
2026-05-06 03:05 20.36952 -103.26249 15539 ft 340 kts 132°
2026-05-06 03:05 20.35399 -103.24317 16020 ft 345 kts 132°
2026-05-06 03:05 20.33833 -103.22367 16572 ft 347 kts 132°
2026-05-06 03:06 20.32256 -103.20407 17138 ft 349 kts 133°
2026-05-06 03:06 20.30669 -103.18436 17710 ft 350 kts 133°
2026-05-06 03:06 20.29085 -103.16470 18238 ft 352 kts 133°
2026-05-06 03:06 20.27492 -103.14497 18743 ft 354 kts 133°
2026-05-06 03:07 20.25872 -103.12489 19239 ft 356 kts 133°
2026-05-06 03:07 20.24257 -103.10488 19759 ft 357 kts 133°
2026-05-06 03:07 20.22651 -103.08499 20297 ft 358 kts 133°
2026-05-06 03:07 20.21013 -103.06473 20781 ft 360 kts 133°
2026-05-06 03:08 20.19379 -103.04449 21239 ft 362 kts 134°
2026-05-06 03:08 20.17738 -103.02419 21693 ft 364 kts 134°
2026-05-06 03:08 20.16086 -103.00374 22117 ft 366 kts 134°
2026-05-06 03:08 20.14426 -102.98323 22535 ft 369 kts 134°
2026-05-06 03:09 20.12756 -102.96261 22956 ft 371 kts 134°
2026-05-06 03:09 20.11041 -102.94142 23353 ft 375 kts 134°
2026-05-06 03:09 20.09338 -102.92039 23731 ft 379 kts 134°
2026-05-06 03:09 20.07622 -102.89919 24122 ft 382 kts 134°
2026-05-06 03:10 20.05862 -102.87749 24497 ft 385 kts 134°
2026-05-06 03:10 20.04112 -102.85592 24871 ft 389 kts 133°
2026-05-06 03:10 20.02349 -102.83418 25235 ft 392 kts 133°
2026-05-06 03:10 20.00566 -102.81217 25609 ft 395 kts 133°
2026-05-06 03:11 19.98748 -102.78977 25986 ft 398 kts 133°
2026-05-06 03:11 19.96940 -102.76746 26361 ft 400 kts 133°
2026-05-06 03:11 19.95110 -102.74494 26728 ft 403 kts 133°
2026-05-06 03:11 19.93279 -102.72238 27060 ft 407 kts 133°
2026-05-06 03:12 19.91427 -102.69955 27394 ft 410 kts 133°
2026-05-06 03:12 19.89548 -102.67641 27730 ft 414 kts 133°
2026-05-06 03:12 19.87660 -102.65318 28061 ft 417 kts 133°
2026-05-06 03:12 19.85748 -102.62966 28388 ft 420 kts 133°
2026-05-06 03:13 19.83842 -102.60623 28705 ft 423 kts 132°
2026-05-06 03:13 19.82028 -102.58146 29013 ft 428 kts 127°
2026-05-06 03:13 19.80416 -102.55468 29321 ft 433 kts 122°
2026-05-06 03:13 19.79042 -102.52619 29642 ft 437 kts 116°
2026-05-06 03:14 19.77843 -102.49603 29988 ft 440 kts 114°
2026-05-06 03:14 19.76707 -102.46619 30306 ft 442 kts 114°
2026-05-06 03:14 19.75565 -102.43600 30617 ft 444 kts 114°
2026-05-06 03:14 19.74405 -102.40545 30938 ft 446 kts 114°
2026-05-06 03:15 19.73250 -102.37512 31245 ft 448 kts 114°
2026-05-06 03:15 19.72067 -102.34418 31540 ft 450 kts 114°
2026-05-06 03:15 19.70889 -102.31348 31835 ft 451 kts 114°
2026-05-06 03:15 19.69714 -102.28288 32114 ft 453 kts 114°
2026-05-06 03:16 19.68512 -102.25162 32396 ft 454 kts 114°
2026-05-06 03:16 19.67318 -102.22055 32661 ft 456 kts 114°
2026-05-06 03:16 19.66121 -102.18942 32912 ft 458 kts 114°
2026-05-06 03:16 19.64919 -102.15823 33162 ft 460 kts 114°
2026-05-06 03:17 19.63709 -102.12688 33376 ft 462 kts 114°
2026-05-06 03:17 19.61272 -102.06369 33386 ft 462 kts 114°
2026-05-06 03:18 19.58833 -102.00053 33365 ft 462 kts 114°
2026-05-06 03:18 19.56392 -101.93740 33342 ft 462 kts 114°
2026-05-06 03:19 19.53969 -101.87481 33340 ft 461 kts 114°
2026-05-06 03:19 19.51528 -101.81187 33344 ft 461 kts 114°
2026-05-06 03:20 19.47876 -101.71782 33362 ft 461 kts 114°
2026-05-06 03:20 19.45443 -101.65519 33358 ft 461 kts 114°
2026-05-06 03:21 19.42992 -101.59222 33341 ft 461 kts 114°
2026-05-06 03:21 19.40546 -101.52940 33326 ft 462 kts 114°
2026-05-06 03:22 19.38105 -101.46688 33314 ft 462 kts 114°
2026-05-06 03:22 19.35646 -101.40396 33299 ft 462 kts 114°
2026-05-06 03:23 19.33195 -101.34139 33266 ft 461 kts 114°
2026-05-06 03:23 19.30732 -101.27855 33260 ft 461 kts 114°
2026-05-06 03:24 19.28286 -101.21614 33233 ft 462 kts 114°
2026-05-06 03:24 19.25818 -101.15327 33209 ft 462 kts 114°
2026-05-06 03:25 19.23360 -101.09071 33191 ft 462 kts 114°
2026-05-06 03:25 19.20890 -101.02793 33175 ft 462 kts 114°
2026-05-06 03:26 19.18418 -100.96516 33189 ft 462 kts 114°
2026-05-06 03:26 19.15951 -100.90258 33166 ft 462 kts 114°
2026-05-06 03:27 19.13476 -100.83989 33151 ft 461 kts 114°
2026-05-06 03:27 19.11005 -100.77741 33111 ft 462 kts 114°
2026-05-06 03:28 19.08532 -100.71491 33105 ft 461 kts 114°
2026-05-06 03:28 19.06057 -100.65243 33104 ft 461 kts 114°
2026-05-06 03:29 19.03579 -100.58993 33090 ft 461 kts 114°
2026-05-06 03:29 19.01107 -100.52763 33094 ft 460 kts 114°
2026-05-06 03:30 18.98630 -100.46535 33109 ft 459 kts 114°
2026-05-06 03:30 18.96178 -100.40372 33143 ft 458 kts 114°
2026-05-06 03:31 18.93706 -100.34167 33184 ft 458 kts 115°
2026-05-06 03:31 18.92478 -100.31088 33022 ft 458 kts 115°
2026-05-06 03:31 18.91251 -100.28006 32740 ft 455 kts 115°
2026-05-06 03:32 18.90026 -100.24937 32486 ft 453 kts 115°
2026-05-06 03:32 18.88799 -100.21871 32231 ft 450 kts 115°
2026-05-06 03:32 18.87582 -100.18830 31947 ft 447 kts 115°
2026-05-06 03:32 18.86378 -100.15823 31657 ft 444 kts 115°
2026-05-06 03:33 18.85173 -100.12815 31347 ft 441 kts 115°
2026-05-06 03:33 18.83984 -100.09849 30985 ft 437 kts 115°
2026-05-06 03:33 18.82815 -100.06933 30591 ft 433 kts 114°
2026-05-06 03:33 18.81650 -100.04031 30184 ft 429 kts 114°
2026-05-06 03:34 18.80490 -100.01140 29768 ft 425 kts 114°
2026-05-06 03:34 18.79336 -99.98265 29340 ft 422 kts 114°
2026-05-06 03:34 18.78203 -99.95444 28885 ft 418 kts 114°
2026-05-06 03:34 18.77076 -99.92639 28443 ft 415 kts 114°
2026-05-06 03:35 18.75944 -99.89823 27983 ft 411 kts 114°
2026-05-06 03:35 18.74838 -99.87072 27508 ft 408 kts 114°
2026-05-06 03:35 18.73962 -99.84244 27003 ft 407 kts 100°
2026-05-06 03:35 18.73961 -99.81274 26515 ft 407 kts 82°
2026-05-06 03:36 18.74808 -99.78465 26051 ft 407 kts 68°
2026-05-06 03:36 18.75983 -99.75748 25583 ft 403 kts 67°
2026-05-06 03:36 18.77135 -99.73102 25114 ft 400 kts 68°
2026-05-06 03:36 18.78285 -99.70442 24648 ft 396 kts 68°
2026-05-06 03:37 18.79418 -99.67803 24194 ft 392 kts 68°
2026-05-06 03:37 18.80539 -99.65176 23745 ft 389 kts 68°
2026-05-06 03:37 18.81634 -99.62602 23298 ft 385 kts 68°
2026-05-06 03:37 18.82721 -99.60045 22863 ft 381 kts 68°
2026-05-06 03:38 18.83811 -99.57473 22421 ft 378 kts 68°
2026-05-06 03:38 18.84869 -99.54973 21989 ft 375 kts 68°
2026-05-06 03:38 18.85927 -99.52469 21552 ft 372 kts 68°
2026-05-06 03:38 18.86978 -99.49980 21100 ft 370 kts 68°
2026-05-06 03:39 18.88021 -99.47511 20670 ft 367 kts 68°
2026-05-06 03:39 18.89052 -99.45074 20250 ft 364 kts 68°
2026-05-06 03:39 18.90071 -99.42658 19815 ft 361 kts 67°
2026-05-06 03:39 18.91095 -99.40232 19368 ft 359 kts 67°
2026-05-06 03:40 18.92128 -99.37843 18909 ft 358 kts 63°
2026-05-06 03:40 18.93485 -99.35657 18509 ft 355 kts 54°
2026-05-06 03:40 18.94993 -99.33597 18152 ft 351 kts 53°
2026-05-06 03:40 18.96468 -99.31599 17808 ft 346 kts 53°
2026-05-06 03:41 18.97948 -99.29557 17479 ft 342 kts 54°
2026-05-06 03:41 18.99353 -99.27588 17163 ft 337 kts 54°
2026-05-06 03:41 19.00768 -99.25584 16851 ft 337 kts 54°
2026-05-06 03:41 19.02154 -99.23608 16539 ft 337 kts 54°
2026-05-06 03:42 19.03561 -99.21595 16232 ft 337 kts 54°
2026-05-06 03:42 19.04955 -99.19598 15919 ft 336 kts 54°
2026-05-06 03:42 19.06337 -99.17614 15543 ft 334 kts 54°
2026-05-06 03:42 19.07712 -99.15638 15123 ft 334 kts 54°
2026-05-06 03:43 19.09069 -99.13686 14694 ft 334 kts 54°
2026-05-06 03:43 19.10429 -99.11728 14521 ft 317 kts 54°
2026-05-06 03:43 19.11675 -99.09937 14461 ft 291 kts 54°
2026-05-06 03:43 19.12846 -99.08248 14404 ft 274 kts 54°
2026-05-06 03:44 19.13934 -99.06680 14349 ft 261 kts 54°
2026-05-06 03:44 19.14880 -99.05318 14301 ft 253 kts 54°
2026-05-06 03:44 19.15948 -99.03796 14241 ft 254 kts 51°
2026-05-06 03:44 19.17337 -99.02700 14128 ft 256 kts 18°
2026-05-06 03:45 19.19124 -99.02676 14096 ft 262 kts 341°
2026-05-06 03:45 19.20660 -99.03715 13869 ft 269 kts 317°
2026-05-06 03:45 19.21994 -99.05153 13430 ft 276 kts 315°
2026-05-06 03:45 19.23352 -99.06617 13000 ft 281 kts 316°
2026-05-06 03:46 19.24670 -99.08147 12696 ft 280 kts 309°
2026-05-06 03:46 19.25848 -99.09759 12521 ft 274 kts 308°
2026-05-06 03:46 19.26972 -99.11343 12369 ft 265 kts 308°
2026-05-06 03:46 19.28075 -99.12894 12186 ft 254 kts 308°
2026-05-06 03:47 19.29114 -99.14345 11973 ft 242 kts 308°
2026-05-06 03:47 19.30132 -99.15761 11587 ft 243 kts 308°
2026-05-06 03:47 19.31163 -99.17191 11113 ft 244 kts 308°
2026-05-06 03:47 19.32247 -99.18543 10653 ft 241 kts 322°
2026-05-06 03:48 19.33708 -99.19342 10177 ft 237 kts 349°
2026-05-06 03:48 19.35337 -99.19334 9715 ft 232 kts 20°
2026-05-06 03:48 19.36704 -99.18516 9448 ft 223 kts 41°
2026-05-06 03:48 19.37758 -99.17323 9198 ft 221 kts 54°
2026-05-06 03:49 19.38594 -99.15983 9007 ft 211 kts 59°
2026-05-06 03:49 19.39299 -99.14693 8720 ft 195 kts 60°
2026-05-06 03:49 19.39955 -99.13487 8460 ft 181 kts 59°
2026-05-06 03:49 19.40574 -99.12380 8216 ft 169 kts 59°
2026-05-06 03:50 19.41145 -99.11364 7987 ft 155 kts 58°
2026-05-06 03:50 19.41684 -99.10404 7796 ft 148 kts 58°
2026-05-06 03:50 19.42206 -99.09466 7621 ft 147 kts 59°
2026-05-06 03:50 19.42723 -99.08548 7432 ft 145 kts 58°
2026-05-06 03:51 19.43231 -99.07643 7331 ft 137 kts 59°
2026-05-06 03:51 19.43638 -99.06919 7329 ft 88 kts 60°
2026-05-06 03:51 19.43864 -99.06519 7328 ft 46 kts 59°
2026-05-06 03:51 19.43995 -99.06306 7328 ft 20 kts 47°
2026-05-06 03:52 19.44097 -99.06224 7328 ft 13 kts 31°
2026-05-06 03:52 19.44145 -99.06198 7328 ft 5 kts 25°
2026-05-06 03:52 19.44185 -99.06182 7328 ft 6 kts 14°
2026-05-06 03:52 19.44231 -99.06170 7328 ft 7 kts 14°
2026-05-06 03:53 19.44286 -99.06164 7328 ft 8 kts
2026-05-06 03:53 19.44351 -99.06169 7327 ft 10 kts 341°
2026-05-06 03:53 19.44399 -99.06225 7327 ft 8 kts 292°
2026-05-06 03:53 19.44419 -99.06278 7327 ft 8 kts 292°
2026-05-06 03:54 19.44441 -99.06335 7328 ft 8 kts 293°
2026-05-06 03:54 19.44460 -99.06397 7328 ft 9 kts 269°
2026-05-06 03:54 19.44432 -99.06458 7328 ft 9 kts 238°
2026-05-06 03:54 19.44394 -99.06523 7328 ft 10 kts 238°
2026-05-06 03:55 19.44355 -99.06593 7328 ft 11 kts 240°
2026-05-06 03:55 19.44313 -99.06667 7328 ft 12 kts 239°
2026-05-06 03:55 19.44271 -99.06744 7328 ft 9 kts 240°
2026-05-06 03:55 19.44280 -99.06798 7328 ft 9 kts 335°
2026-05-06 03:56 19.44344 -99.06828 7328 ft 10 kts 336°
2026-05-06 03:56 19.44413 -99.06862 7328 ft 11 kts 331°
2026-05-06 03:56 19.44473 -99.06896 7328 ft 5 kts 332°
2026-05-06 03:56 19.44498 -99.06898 7328 ft 0 kts 28°
2026-05-06 03:57 19.44516 -99.06883 7328 ft 5 kts 53°
2026-05-06 03:57 19.44521 -99.06873 7328 ft 0 kts 60°